Weather History for West Plains, MO

Change the Weather History Date:

Friday, December 28, 2012

  Actual Average Record
Temperature  
Mean Temperature 32 °F 34 °F  
Max Temperature 35 °F 45 °F 69 °F (1984)
Min Temperature 29 °F 24 °F 10 °F (1950)
Degree Days  
Heating Degree Days 33 31  
Month to date heating degree days 616 802  
Since 1 July heating degree days 1560 1654  
Cooling Degree Days 0 0  
Month to date cooling degree days 0 0  
Year to date cooling degree days 1739 1354  
Moisture  
Dew Point 29 °F    
Average Humidity 85    
Maximum Humidity 92    
Minimum Humidity 78    
Precipitation  
Precipitation 0.10 in 0.07 in 1.50 in (1997)
Month to date precipitation 1.90 3.44  
Year to date precipitation 31.82 46.02  
Sea Level Pressure  
Sea Level Pressure 29.93 in    
Wind  
Wind Speed 4 mph (NNW)    
Max Wind Speed 12 mph    
Max Gust Speed 17 mph    
Visibility 4 miles    
Events Fog , Rain , Snow    
T = Trace of Precipitation, MM = Missing Value Source: NWS Daily Summary

Daily Weather History Graph

Daily Weather History Graph

Search for Another Location

Airport:

Trip Planner

Search our weather history database for the weather conditions in past years. The results will help you decide how hot, cold, wet, or windy it might be!

Date:

Astronomy

Dec. 28, 2012 Rise Set
Actual Time 7:19 AM CST 4:59 PM CST
Civil Twilight 6:50 AM CST 5:28 PM CST
Nautical Twilight 6:18 AM CST 6:00 PM CST
Astronomical Twilight 5:46 AM CST 6:32 PM CST
Moon 5:34 PM CST (12/28) 7:15 AM CST (12/28)
Length of Visible Light 10h 37m
Length of Day
9h 39m
Full, 100% of the Moon is Illuminated
Dec 28
Full
Jan 4
Last Quarter
Jan 11
New
Jan 18
First Quarter
Jan 26
Full

Hourly Weather History & Observations

Time (CST) Temp. Windchill Dew Point Humidity Pressure Visibility Wind Dir Wind Speed Gust Speed Precip Events Conditions
12:53 AM 28.9 °F 23.9 °F 24.1 °F 82% 30.03 in 10.0 mi SE 4.6 mph - N/A   Overcast
1:53 AM 30.0 °F 25.2 °F 25.0 °F 82% 30.04 in 10.0 mi SSE 4.6 mph - N/A   Overcast
2:53 AM 28.9 °F 23.9 °F 25.0 °F 85% 30.04 in 10.0 mi SSE 4.6 mph - N/A   Overcast
3:30 AM 30.2 °F 26.7 °F 24.8 °F 80% 30.00 in 10.0 mi SSE 3.5 mph - N/A   Overcast
3:53 AM 28.9 °F 25.2 °F 25.0 °F 85% 30.03 in 7.0 mi SSE 3.5 mph - N/A   Overcast
4:02 AM 28.4 °F - 24.8 °F 86% 30.00 in 8.0 mi Calm Calm - N/A   Overcast
5:06 AM 30.2 °F - 26.6 °F 86% 29.98 in 5.0 mi Calm Calm - N/A   Overcast
5:20 AM 28.4 °F 23.3 °F 26.6 °F 93% 30.00 in 5.0 mi South 4.6 mph - N/A   Overcast
5:29 AM 28.4 °F 23.3 °F 26.6 °F 93% 29.99 in 3.0 mi SSE 4.6 mph - N/A   Overcast
5:53 AM 28.9 °F 25.2 °F 27.0 °F 92% 30.02 in 3.0 mi SSE 3.5 mph - N/A   Overcast
6:03 AM 28.4 °F 24.6 °F 26.6 °F 93% 29.99 in 2.5 mi SE 3.5 mph - N/A   Overcast
6:25 AM 28.4 °F 24.6 °F 28.4 °F 100% 29.99 in 3.0 mi SSE 3.5 mph - N/A   Overcast
6:53 AM 30.0 °F 26.5 °F 27.0 °F 88% 30.01 in 3.0 mi SE 3.5 mph - N/A   Overcast
7:53 AM 30.0 °F - 28.0 °F 92% 30.00 in 2.5 mi Calm Calm - N/A   Overcast
8:53 AM 30.9 °F - 28.9 °F 92% 30.01 in 2.5 mi Calm Calm - N/A   Overcast
9:17 AM 30.2 °F 26.7 °F 28.4 °F 93% 29.97 in 3.0 mi ENE 3.5 mph - N/A   Overcast
9:53 AM 33.1 °F - 28.9 °F 85% 30.00 in 5.0 mi Calm Calm - N/A   Overcast
10:49 AM 33.8 °F 30.8 °F 28.4 °F 81% 29.96 in 6.0 mi ESE 3.5 mph - N/A   Overcast
10:53 AM 33.1 °F 28.7 °F 28.9 °F 85% 29.99 in 6.0 mi East 4.6 mph - N/A   Overcast
11:53 AM 34.0 °F 31.0 °F 30.0 °F 85% 29.95 in 5.0 mi North 3.5 mph - N/A   Overcast
12:05 PM 33.8 °F 29.6 °F 30.2 °F 87% 29.91 in 5.0 mi North 4.6 mph - N/A   Overcast
12:18 PM 33.8 °F 29.6 °F 30.2 °F 87% 29.91 in 5.0 mi NE 4.6 mph - N/A   Overcast
12:50 PM 33.8 °F 30.8 °F 30.2 °F 87% 29.88 in 5.0 mi NNE 3.5 mph - 0.00 in   Overcast
12:53 PM 34.0 °F 31.0 °F 30.0 °F 85% 29.91 in 5.0 mi NNE 3.5 mph - 0.00 in   Overcast
1:25 PM 33.8 °F 30.8 °F 30.2 °F 87% 29.86 in 3.0 mi NE 3.5 mph - 0.02 in Rain Light Rain
1:53 PM 34.0 °F 31.0 °F 30.9 °F 89% 29.88 in 4.0 mi NE 3.5 mph - 0.02 in   Overcast
2:22 PM 35.6 °F - 32.0 °F 87% 29.86 in 4.0 mi Calm Calm - N/A   Overcast
2:46 PM 33.8 °F - 30.2 °F 87% 29.86 in 1.8 mi Calm Calm - 0.01 in Snow Light Snow
2:53 PM 34.0 °F - 30.9 °F 89% 29.88 in 1.2 mi Calm Calm - 0.01 in Snow Light Snow
3:01 PM 33.8 °F - 30.2 °F 87% 29.86 in 1.0 mi Calm Calm - 0.00 in Snow Light Snow
3:08 PM 33.8 °F 30.8 °F 30.2 °F 87% 29.86 in 0.8 mi NNW 3.5 mph - 0.00 in Snow Light Snow
3:17 PM 33.8 °F 29.6 °F 30.2 °F 87% 29.87 in 0.5 mi NW 4.6 mph - 0.00 in Fog , Snow Snow
3:22 PM 33.8 °F 29.6 °F 30.2 °F 87% 29.86 in 0.5 mi NW 4.6 mph - 0.00 in Fog , Snow Snow
3:45 PM 33.8 °F 28.6 °F 30.2 °F 87% 29.87 in 0.2 mi NW 5.8 mph - 0.00 in Fog , Snow Snow
3:53 PM 33.1 °F 27.7 °F 30.9 °F 92% 29.90 in 0.2 mi NNW 5.8 mph - 0.00 in Fog , Snow Snow
4:03 PM 33.8 °F 27.7 °F 30.2 °F 87% 29.87 in 0.5 mi NNW 6.9 mph - 0.00 in Fog , Snow Snow
4:13 PM 33.8 °F 28.6 °F 30.2 °F 87% 29.87 in 0.8 mi NNW 5.8 mph - 0.01 in Snow Light Snow
4:29 PM 33.8 °F 29.6 °F 30.2 °F 87% 29.87 in 0.5 mi North 4.6 mph - 0.01 in Fog , Snow Snow
4:36 PM 33.8 °F 30.8 °F 30.2 °F 87% 29.87 in 0.8 mi NNW 3.5 mph - 0.01 in Snow Light Snow
4:40 PM 33.8 °F 29.6 °F 30.2 °F 87% 29.88 in 1.0 mi NW 4.6 mph - 0.01 in Snow Light Snow
4:53 PM 32.0 °F 24.8 °F 30.9 °F 96% 29.91 in 0.8 mi NW 8.1 mph - 0.02 in Snow Light Snow
5:17 PM 32.0 °F 25.6 °F 30.2 °F 93% 29.87 in 0.8 mi North 6.9 mph - 0.01 in Snow Light Snow
5:20 PM 32.0 °F 27.5 °F 30.2 °F 93% 29.87 in 1.2 mi NNW 4.6 mph - 0.01 in Snow Light Snow
5:23 PM 32.0 °F 26.4 °F 30.2 °F 93% 29.88 in 2.0 mi NNW 5.8 mph - 0.01 in Snow Light Snow
5:35 PM 32.0 °F 27.5 °F 30.2 °F 93% 29.88 in 1.8 mi NW 4.6 mph - 0.01 in Snow Light Snow
5:48 PM 32.0 °F 25.6 °F 30.2 °F 93% 29.88 in 1.5 mi NW 6.9 mph - 0.01 in Snow Light Snow
5:53 PM 32.0 °F 27.5 °F 30.0 °F 92% 29.91 in 1.5 mi NNW 4.6 mph - 0.01 in Snow Light Snow
6:00 PM 32.0 °F 26.4 °F 30.2 °F 93% 29.88 in 1.5 mi NNW 5.8 mph - 0.01 in Snow Light Snow
6:13 PM 32.0 °F 27.5 °F 30.2 °F 93% 29.88 in 2.0 mi NNW 4.6 mph - 0.01 in Snow Light Snow
6:51 PM 32.0 °F 27.5 °F 30.2 °F 93% 29.89 in 1.5 mi NW 4.6 mph - 0.02 in Snow Light Snow
7:00 PM 32.0 °F 26.4 °F 30.2 °F 93% 29.89 in 1.0 mi NNW 5.8 mph - 0.00 in Snow Light Snow
7:17 PM 32.0 °F 24.8 °F 30.2 °F 93% 29.90 in 1.2 mi NW 8.1 mph - 0.00 in Snow Light Snow
7:26 PM 32.0 °F 24.8 °F 28.4 °F 87% 29.90 in 2.5 mi NW 8.1 mph - 0.01 in Snow Light Snow
7:34 PM 32.0 °F 24.2 °F 28.4 °F 87% 29.90 in 3.0 mi NW 9.2 mph - 0.01 in Snow Light Snow
7:53 PM 32.0 °F 26.4 °F 28.9 °F 88% 29.93 in 3.0 mi NW 5.8 mph - 0.01 in Snow Light Snow
8:03 PM 32.0 °F 25.6 °F 28.4 °F 87% 29.90 in 4.0 mi NW 6.9 mph - 0.00 in   Overcast
8:40 PM 30.2 °F 23.4 °F 28.4 °F 93% 29.91 in 5.0 mi NW 6.9 mph - 0.01 in   Overcast
8:53 PM 30.9 °F 25.2 °F 28.0 °F 89% 29.94 in 6.0 mi NW 5.8 mph - 0.01 in   Overcast
9:48 PM 30.2 °F 23.4 °F 28.4 °F 93% 29.93 in 6.0 mi WNW 6.9 mph - 0.00 in   Overcast
9:53 PM 30.9 °F 24.3 °F 28.0 °F 89% 29.96 in 6.0 mi WNW 6.9 mph - 0.00 in   Overcast
10:53 PM 30.0 °F 21.1 °F 27.0 °F 88% 29.97 in 6.0 mi WNW 10.4 mph - N/A   Overcast
11:53 PM 30.0 °F 22.4 °F 25.0 °F 82% 29.99 in 8.0 mi NW 8.1 mph - N/A   Overcast